Regional Weather Roundup
Issued by NWS Midland/Odessa, TX

Skip options and go directly to product.
Home | Oldest Version | Previous Version | Current Version | All | Text Only | Save Text | Print | Product List | Glossary Off

Skip product version selection by date and time.   

769
ASUS44 KMAF 302010
RWRMAF
MIDLAND AREA WEATHER ROUNDUP
NATIONAL WEATHER SERVICE MIDLAND TX
300 PM CDT MON MAY 30 2016

...IN SOUTHWEST TEXAS AND SOUTHEAST NEW MEXICO...

CITY           SKY/WX    TMP DP  RH WIND       PRES   REMARKS
ALPINE         CLOUDY    80  48  32 SE3       30.12R
ANDREWS        FAIR      84  60  44 S7G21     30.00F
ARTESIA        SUNNY     79  55  44 VRB7      29.99F THUNDER
BIG SPRING     PTSUNNY   82  61  49 SE13G18   30.00F
CARLSBAD       CLOUDY    79  58  48 S15       29.97F
DRYDEN           N/A     87  70  56 E13G23    29.94F
FORT STOCKTON  NOT AVBL
GUAD PASS      NOT AVBL
HOBBS          SUNNY     82  57  42 SE9       30.02F
MARFA          CLOUDY    71  52  50 S14G22    30.12R THUNDER HAZE
MIDLAND AIRPK  SUNNY     88  59  37 SE7       29.98F
MIDLAND INTL   MOSUNNY   87  60  40 VRB7G18   29.98F
ODESSA         SUNNY     86  61  42 SW13      29.99F
PECOS          SUNNY     83  57  40 E3        29.97F
PRESIDIO       FAIR      91  58  32 NE13G22   29.92S
SEMINOLE       SUNNY     85  57  38 S6        30.01F
SNYDER           N/A     80  68  67 E9        29.99F
WINK           NOT AVBL
$$
...OTHER STATIONS IN TEXAS...

CITY           SKY/WX    TMP DP  RH WIND       PRES   REMARKS
ABILENE        PTSUNNY   83  69  62 CALM      29.98F
AMARILLO       SUNNY     77  60  55 S13G21    30.01F
AUSTIN         MOSUNNY   86  63  45 S8        29.95F
BROWNSVILLE    TSTM      79  77  94 SE7       29.98R
CORPUS CHRISTI MOSUNNY   88  72  58 SE18      29.92F
DALLAS FTW     PTSUNNY   82  63  52 S5        29.96F
DEL RIO        CLOUDY    82  68  62 SE14      29.96F
EL PASO        MOSUNNY   88  41  19 VRB3      29.95F
HOUSTON INT    CLOUDY    84  70  62 W5        29.96S
LUBBOCK        MOSUNNY   78  64  61 S9        30.01F
SAN ANGELO     CLOUDY    81  70  69 S13       29.99F
SAN ANTONIO    MOSUNNY   84  63  49 SE5       29.97F
WACO           SUNNY     84  65  52 NE6       29.96F
WICHITA FALLS  NOT AVBL
$$
...OTHER LOCATIONS IN NEW MEXICO...

CITY           SKY/WX    TMP DP  RH WIND       PRES   REMARKS
ALAMAGORDO     MOSUNNY   84  37  18 SW6       29.98F
ALBUQUERQUE    PTSUNNY   82  22  11 VRB3      30.05F
CANNON AFB     SUNNY     82  55  39 SW10G18   30.03F
CLOVIS         SUNNY     82  54  36 S12G21    30.03F
HOLLOMAN AFB   MOSUNNY   89  36  15 VRB7      29.95F
ROSWELL        PTSUNNY   80  53  39 S13       30.00F
RUIDOSO        MOSUNNY   75  28  17 SW14G22   30.17F
SANTA FE       SUNNY     78  17  10 VRB3G21   30.09F
TRUTH OR CONSE LGT RAIN  82  34  17 SW9G28    29.99F
TUCUMCARI      SUNNY     87  47  24 S15       29.97F
$$

USA.gov is the U.S. government's official web portal to all federal, state and local government web resources and services.